#timestamp,LO_Frequency,Hit,StdDev 
1677499215.1,286047000.9,N
1677499216.0,286047000.9,N
1677499235.8,286047001.1,N
1677499255.6,286047000.9,N
1677499275.5,286047000.8,N
1677499295.3,286047000.9,N
1677499315.2,286046999.8,N
1677499335.9,286047002.2,N
1677499355.7,286047002.4,N
1677499375.6,286047001.9,N
1677499395.4,286047001.5,N
1677499415.2,286047001.3,N
1677499435.1,286047001.9,N
1677499436.0,286047001.9,N
1677499455.8,286047002.5,N
1677499475.7,286047001.9,N
1677499495.5,286047000.0,N
1677499515.3,286047002.8,N
1677499535.2,286047001.6,N
1677499555.9,286047002.4,N
1677499575.7,286047000.5,N
1677499595.6,286047000.6,N
1677499615.4,286047000.9,N
1677499635.2,286047000.6,N
1677499655.1,286047000.2,N
1677499656.0,286047000.2,N
1677499675.8,286046999.9,N
1677499695.7,286047000.5,N
1677499715.5,286047002.8,Y
1677499735.3,286047000.3,P
1677499755.2,286047002.6,P
1677499775.0,286047002.2,N
1677499775.9,286047002.2,N
1677499795.8,286046999.8,N
1677499815.6,286046998.1,N
1677499835.4,286046999.9,N
1677499855.3,286047000.0,N
1677499875.1,286046998.2,N
1677499895.8,286047001.1,N
1677499915.7,286047000.9,N
1677499935.5,286047000.5,N
1677499955.4,286047002.7,N
1677499975.2,286047000.0,N
1677499995.0,286046999.9,N
1677499995.9,286046999.9,N
1677500015.8,286047002.5,N
1677500035.6,286047002.0,N
1677500055.4,286047001.5,N
1677500075.3,286047002.7,N
1677500095.1,286047002.3,N
1677500115.9,286047000.3,N
1677500135.7,286047000.6,N
1677500155.5,286047001.2,N
1677500175.4,286047000.3,N
1677500195.2,286047000.2,N
1677500215.0,286047001.2,N
1677500216.0,286047001.2,N
1677500235.8,286047000.6,N
1677500255.6,286047000.5,N
1677500275.5,286047000.6,N
1677500295.3,286047000.1,N
1677500315.1,286046999.7,N
1677500335.9,286046999.9,N
1677500355.7,286047002.6,N
1677500375.6,286047001.3,N
1677500395.4,286047001.6,N
1677500415.2,286047003.9,Y
1677500435.1,286047004.4,P
1677500436.0,286047004.4,N
1677500455.8,286047001.6,N
1677500475.6,286046999.8,N
1677500495.5,286047000.6,N
1677500515.3,286046999.9,N
1677500535.2,286047002.5,N
1677500555.9,286047002.4,N
1677500575.7,286047003.7,N
1677500595.6,286047003.3,N
1677500615.4,286047005.3,Y
1677500635.2,286047002.8,P
1677500655.1,286047000.5,N
1677500656.0,286047000.5,N
1677500675.8,286047001.7,N
1677500695.7,286047000.7,N
1677500715.5,286047000.3,N
1677500735.3,286047000.2,N
1677500755.2,286046998.6,N
1677500775.0,286046999.3,N
1677500775.9,286046999.3,N
1677500795.7,286046996.6,N
1677500815.6,286046997.2,N
1677500835.4,286046996.5,N
1677500855.3,286046998.2,N
1677500875.1,286046996.5,N
1677500876.0,286046996.5,N
1677500895.8,286046999.1,N
1677500915.7,286046999.3,N
1677500935.5,286046998.3,N
1677500955.3,286047001.0,N
1677500975.2,286046999.8,N
1677500995.0,286047000.9,N
1677500995.9,286047000.9,N
1677501015.8,286046998.5,N
1677501035.6,286047000.2,N
1677501055.4,286046998.9,N
1677501075.3,286046999.0,N
1677501095.1,286046996.5,N
1677501115.8,286046996.9,N
1677501135.7,286046999.2,N
1677501155.5,286046996.5,N
1677501175.4,286046998.3,N
1677501195.2,286047001.0,N
1677501215.0,286047000.8,N
1677501215.9,286047000.8,N
1677501235.8,286046998.6,N
1677501255.6,286046998.6,N
1677501275.4,286046998.1,N
1677501295.3,286047002.4,N
1677501315.1,286047000.2,N
1677501335.9,286046999.8,N
1677501355.7,286047000.6,N
1677501375.5,286047001.0,N
1677501395.4,286047000.4,N
1677501415.2,286047000.8,N
1677501435.0,286046999.0,N
1677501436.0,286046999.0,N
1677501455.8,286047000.8,N
1677501475.6,286047001.1,N
1677501495.5,286046998.4,N
1677501515.3,286046997.0,N
1677501535.1,286046996.5,N
1677501555.9,286046996.8,N
1677501575.7,286046996.7,N
1677501595.6,286046999.5,N
1677501615.4,286046999.4,N
1677501635.2,286046996.5,N
1677501655.1,286046999.0,N
1677501656.0,286046999.0,N
1677501675.8,286046998.3,N
1677501695.6,286046998.8,N
1677501715.5,286046999.4,N
1677501735.3,286047000.8,N
1677501755.2,286047000.8,N
1677501775.9,286047000.0,N
1677501795.7,286046998.7,N
1677501815.6,286046999.0,N
1677501835.4,286046998.4,N
1677501855.2,286046996.9,N
1677501875.1,286046999.1,N
1677501876.0,286046999.1,N
1677501895.8,286046998.7,N
1677501915.7,286046998.9,N
1677501935.5,286046999.1,N
1677501955.3,286046998.3,N
1677501975.2,286046998.1,N
1677501995.0,286046999.8,N
1677501995.9,286046999.8,N
1677502015.7,286046999.7,N
1677502035.6,286047000.8,N
1677502055.4,286046998.0,N
1677502075.3,286046993.8,Y
1677502095.1,286046997.3,P
1677502096.0,286046997.3,P
1677502115.8,286046997.8,P
1677502135.7,286046997.5,Y
1677502155.5,286046998.2,P
1677502175.4,286047000.4,N
1677502195.2,286046999.8,N
1677502215.0,286047002.5,N
1677502215.9,286047002.5,N
1677502235.8,286047001.7,N
1677502255.6,286047004.4,N
1677502275.4,286047004.0,N
1677502295.3,286047001.8,N
1677502315.1,286047002.8,N
1677502335.9,286047002.7,N
1677502355.7,286047001.9,N
1677502375.5,286047002.6,N
1677502395.4,286047000.2,N
1677502415.2,286047001.6,N
1677502435.0,286047001.7,N
1677502435.9,286047001.7,N
1677502455.8,286047001.4,N
1677502475.6,286047002.3,N
1677502495.4,286047002.5,N
1677502515.3,286047004.2,N
1677502535.1,286047001.3,N
1677502555.9,286047002.1,N
1677502575.7,286046999.7,N
1677502595.5,286047000.3,N
1677502615.4,286047000.2,N
1677502635.2,286047000.4,N
1677502655.1,286047000.2,N
1677502656.0,286047000.2,N
1677502675.8,286046999.7,N
1677502695.6,286047002.0,N
1677502715.5,286047002.1,N
1677502735.3,286047002.0,N
1677502755.2,286047002.5,N
1677502775.0,286047002.4,N
1677502775.9,286047002.4,N
1677502795.8,286047001.8,N
